Liberal, Kansas, United States (67901)
Lat: 37.04N, Lon: 100.92W
Wx Zone: KSZ086
Local Info
Past Weather Observations for Tuesday, October 21, 2014

NOTE: This archive is for the closest National Weather Service station to Liberal. Information may differ from the station used for current weather conditions.

Click here for Long-term Archive

Time Weather Temperature Dewpoint Humidity Pressure Winds Precip Visibility
23:55
Clear
61°F / 16°C 46°F / 8°C 59% 30.04 in
(1017 mb)
SSE 12.7 mph
(SSE 20 kph)
- 10SM
23:35
Clear
61°F / 16°C 46°F / 8°C 59% 30.04 in
(1017 mb)
SSE 12.7 mph
(SSE 20 kph)
- 10SM
23:15
Clear
61°F / 16°C 46°F / 8°C 59% 30.04 in
(1017 mb)
SSE 12.7 mph
(SSE 20 kph)
- 10SM
22:55
Clear
61°F / 16°C 46°F / 8°C 59% 30.04 in
(1017 mb)
SSE 12.7 mph
(SSE 20 kph)
- 10SM
22:35
Clear
63°F / 17°C 46°F / 8°C 56% 30.04 in
(1017 mb)
SSE 12.7 mph
(SSE 20 kph)
- 10SM
22:15
Clear
63°F / 17°C 48°F / 9°C 59% 30.04 in
(1017 mb)
SSE 12.7 mph
(SSE 20 kph)
- 10SM
21:55
Clear
63°F / 17°C 48°F / 9°C 59% 30.04 in
(1017 mb)
SSE 12.7 mph
(SSE 20 kph)
- 10SM
21:35
Clear
63°F / 17°C 48°F / 9°C 59% 30.04 in
(1017 mb)
SSE 11.5 mph
(SSE 19 kph)
- 10SM
21:15
Clear
64°F / 18°C 48°F / 9°C 56% 30.04 in
(1017 mb)
SSE 12.7 mph
(SSE 20 kph)
- 10SM
20:55
Clear
64°F / 18°C 48°F / 9°C 56% 30.04 in
(1017 mb)
SSE 11.5 mph
(SSE 19 kph)
- 10SM
20:35
Clear
64°F / 18°C 48°F / 9°C 56% 30.04 in
(1017 mb)
SSE 12.7 mph
(SSE 20 kph)
- 10SM
20:15
Clear
64°F / 18°C 48°F / 9°C 56% 30.04 in
(1017 mb)
SSE 11.5 mph
(SSE 19 kph)
- 10SM
19:55
Clear
64°F / 18°C 48°F / 9°C 56% 30.04 in
(1017 mb)
SSE 11.5 mph
(SSE 19 kph)
- 10SM
19:35
Clear
64°F / 18°C 46°F / 8°C 52% 30.04 in
(1017 mb)
SE 10.4 mph
(SE 17 kph)
- 10SM
19:15
Clear
66°F / 19°C 46°F / 8°C 49% 30.04 in
(1017 mb)
SSE 9.2 mph
(SSE 15 kph)
- 10SM
18:55
Clear
66°F / 19°C 46°F / 8°C 49% 30.04 in
(1017 mb)
S 11.5 mph
(S 19 kph)
- 10SM
18:35
Clear
68°F / 20°C 46°F / 8°C 46% 30.04 in
(1017 mb)
S 10.4 mph
(S 17 kph)
- 10SM
18:15
Clear
72°F / 22°C 46°F / 8°C 41% 30.01 in
(1016 mb)
S 11.5 mph
(S 19 kph)
- 10SM
17:55
Clear
72°F / 22°C 48°F / 9°C 44% 30.01 in
(1016 mb)
S 11.5 mph
(S 19 kph)
- 10SM
17:35
Partly Cloudy
73°F / 23°C 48°F / 9°C 41% 30.01 in
(1016 mb)
S 10.4 mph
(S 17 kph)
- 10SM
17:15
Clear
75°F / 24°C 48°F / 9°C 39% 30.01 in
(1016 mb)
S 12.7 mph
(S 20 kph)
- 10SM
16:55
Partly Cloudy
77°F / 25°C 48°F / 9°C 36% 30.01 in
(1016 mb)
S 17.3 mph
(S 28 kph)
- 10SM
16:35
Mostly Cloudy
79°F / 26°C 50°F / 10°C 37% 30.01 in
(1016 mb)
S 17.3 mph
(S 28 kph)
- 10SM
16:15
Partly Cloudy
77°F / 25°C 48°F / 9°C 36% 30.01 in
(1016 mb)
S 16.1 mph
(S 26 kph)
- 10SM
15:55
Partly Cloudy
81°F / 27°C 50°F / 10°C 34% 30.01 in
(1016 mb)
SSE 17.3 mph
(SSE 28 kph)
- 10SM
15:35
Mostly Cloudy
79°F / 26°C 50°F / 10°C 37% 30.01 in
(1016 mb)
S 19.6 mph
(S 32 kph)
- 10SM
15:15
Mostly Cloudy
81°F / 27°C 50°F / 10°C 34% 30.04 in
(1017 mb)
S 19.6 mph
(S 32 kph)
- 10SM
14:55
Mostly Cloudy
81°F / 27°C 52°F / 11°C 37% 30.04 in
(1017 mb)
SSE 15 mph
(SSE 24 kph)
- 10SM
14:35
Mostly Cloudy
79°F / 26°C 52°F / 11°C 39% 30.04 in
(1017 mb)
S 13.8 mph
(S 22 kph)
- 10SM
14:15
Mostly Cloudy
81°F / 27°C 52°F / 11°C 37% 30.04 in
(1017 mb)
SSE 16.1 mph
(SSE 26 kph)
- 10SM
13:55
Mostly Cloudy
79°F / 26°C 52°F / 11°C 39% 30.04 in
(1017 mb)
S 17.3 mph
(S 28 kph)
- 10SM
13:35
Mostly Cloudy
79°F / 26°C 52°F / 11°C 39% 30.04 in
(1017 mb)
SSE 17.3 mph
(SSE 28 kph)
- 10SM
13:15
Mostly Cloudy
79°F / 26°C 54°F / 12°C 42% 30.06 in
(1018 mb)
S 13.8 mph
(S 22 kph)
- 10SM
12:55
Mostly Cloudy
79°F / 26°C 52°F / 11°C 39% 30.06 in
(1018 mb)
SW 15 mph
(SW 24 kph)
- 10SM
12:35
Clear
79°F / 26°C 54°F / 12°C 42% 30.06 in
(1018 mb)
S 13.8 mph
(S 22 kph)
- 10SM
12:15
Clear
77°F / 25°C 54°F / 12°C 44% 30.09 in
(1019 mb)
S 11.5 mph
(S 19 kph)
- 10SM
11:55
Clear
75°F / 24°C 55°F / 13°C 50% 30.09 in
(1019 mb)
S 11.5 mph
(S 19 kph)
- 10SM
11:35
Clear
75°F / 24°C 55°F / 13°C 50% 30.09 in
(1019 mb)
SSE 11.5 mph
(SSE 19 kph)
- 10SM
11:15
Clear
72°F / 22°C 57°F / 14°C 61% 30.09 in
(1019 mb)
S 6.9 mph
(S 11 kph)
- 10SM
10:55
Clear
70°F / 21°C 57°F / 14°C 64% 30.12 in
(1020 mb)
S 5.8 mph
(S 9 kph)
- 10SM
10:35
Clear
68°F / 20°C 57°F / 14°C 69% 30.12 in
(1020 mb)
SSE 6.9 mph
(SSE 11 kph)
- 10SM
10:15
Clear
66°F / 19°C 55°F / 13°C 68% 30.12 in
(1020 mb)
SSE 5.8 mph
(SSE 9 kph)
- 10SM
09:55
Clear
61°F / 16°C 55°F / 13°C 83% 30.12 in
(1020 mb)
SW 5.8 mph
(SW 9 kph)
- 10SM
09:35
Partly Cloudy
57°F / 14°C 54°F / 12°C 88% 30.12 in
(1020 mb)
SSW 4.6 mph
(SSW 7 kph)
- 9SM
09:15
Overcast
55°F / 13°C 52°F / 11°C 88% 30.12 in
(1020 mb)
SW 4.6 mph
(SW 7 kph)
- 3SM
08:55
Overcast
54°F / 12°C 50°F / 10°C 88% 30.12 in
(1020 mb)
Calm - 1/4SM
08:35
Overcast
54°F / 12°C 48°F / 9°C 82% 30.12 in
(1020 mb)
Calm - 1/4SM
08:15
Overcast
54°F / 12°C 48°F / 9°C 82% 30.09 in
(1019 mb)
NW 3.5 mph
(NW 6 kph)
- M1/4SM
07:55
Overcast
54°F / 12°C 48°F / 9°C 82% 30.09 in
(1019 mb)
NW 3.5 mph
(NW 6 kph)
- M1/4SM
07:35
Overcast
52°F / 11°C 48°F / 9°C 88% 30.09 in
(1019 mb)
W 4.6 mph
(W 7 kph)
- M1/4SM
07:15
Overcast
54°F / 12°C 48°F / 9°C 82% 30.09 in
(1019 mb)
Calm - M1/4SM
06:55
Overcast
54°F / 12°C 48°F / 9°C 82% 30.09 in
(1019 mb)
Calm - M1/4SM
06:35
Overcast
54°F / 12°C 48°F / 9°C 82% 30.09 in
(1019 mb)
Calm - 1/4SM
06:15
Overcast
54°F / 12°C 48°F / 9°C 82% 30.09 in
(1019 mb)
Calm - 1/4SM
05:55
Overcast
54°F / 12°C 48°F / 9°C 82% 30.09 in
(1019 mb)
Calm - 1/4SM
05:35
Overcast
54°F / 12°C 48°F / 9°C 82% 30.09 in
(1019 mb)
SE 3.5 mph
(SE 6 kph)
- 1 1/2SM
05:15
Mostly Cloudy
54°F / 12°C 48°F / 9°C 82% 30.09 in
(1019 mb)
SE 4.6 mph
(SE 7 kph)
- 9SM
04:55
Partly Cloudy
54°F / 12°C 48°F / 9°C 82% 30.09 in
(1019 mb)
SE 4.6 mph
(SE 7 kph)
- 10SM
04:35
Clear
54°F / 12°C 48°F / 9°C 82% 30.09 in
(1019 mb)
ESE 5.8 mph
(ESE 9 kph)
- 10SM
04:15
Clear
55°F / 13°C 48°F / 9°C 77% 30.09 in
(1019 mb)
ESE 5.8 mph
(ESE 9 kph)
- 10SM
03:55
Clear
55°F / 13°C 48°F / 9°C 77% 30.09 in
(1019 mb)
SE 4.6 mph
(SE 7 kph)
- 10SM
03:35
Clear
55°F / 13°C 50°F / 10°C 82% 30.06 in
(1018 mb)
ESE 3.5 mph
(ESE 6 kph)
- 10SM
03:15
Clear
55°F / 13°C 50°F / 10°C 82% 30.06 in
(1018 mb)
E 4.6 mph
(E 7 kph)
- 10SM
02:55
Clear
57°F / 14°C 52°F / 11°C 82% 30.09 in
(1019 mb)
E 4.6 mph
(E 7 kph)
- 10SM
02:35
Clear
57°F / 14°C 52°F / 11°C 82% 30.09 in
(1019 mb)
E 4.6 mph
(E 7 kph)
- 10SM
02:15
Clear
57°F / 14°C 52°F / 11°C 82% 30.09 in
(1019 mb)
E 5.8 mph
(E 9 kph)
- 10SM
01:55
Clear
57°F / 14°C 52°F / 11°C 82% 30.09 in
(1019 mb)
E 4.6 mph
(E 7 kph)
- 10SM
01:35
Clear
57°F / 14°C 52°F / 11°C 82% 30.09 in
(1019 mb)
E 5.8 mph
(E 9 kph)
- 10SM
01:15
Clear
57°F / 14°C 52°F / 11°C 82% 30.09 in
(1019 mb)
E 4.6 mph
(E 7 kph)
- 10SM
00:55
Clear
57°F / 14°C 52°F / 11°C 82% 30.09 in
(1019 mb)
E 6.9 mph
(E 11 kph)
- 10SM
00:35
Clear
57°F / 14°C 52°F / 11°C 82% 30.09 in
(1019 mb)
ESE 5.8 mph
(ESE 9 kph)
- 10SM
00:15
Clear
57°F / 14°C 52°F / 11°C 82% 30.09 in
(1019 mb)
ESE 5.8 mph
(ESE 9 kph)
- 10SM
Time Weather Temperature Dewpoint Humidity Pressure Winds Precip Visibility


Weather for websites

WeatherForYou.com, LLC is not responsible for any damages or problems caused by this service. Current weather conditions are obtained from the closest station including government and personal stations which may have varying degrees of accuracy. Weather forecasts are derived from the NOAA NDFD. Like all things, this site belongs to Jesus Christ... He just trusts me to maintain it. If you have any questions or comments email webmaster@weatherforyou.com

Copyright © 2014, WeatherForYou.com LLC. All rights reserved.